This is the latest recevied weather packets stored in our database for station/object JH5EWP-13. If no packets are shown the sender has not sent any weather packets the latest 10 day(s).
| Time | Temp. | Humidity | Pressure | Rain* | Wind** | Luminosity | Snow |
|---|---|---|---|---|---|---|---|
| 1778152883 | 20.56° C | 70% | 1001.5 hPa | 0 mm | - | - | - |
| 1778151982 | 20.56° C | 69% | 1001.3 hPa | 0 mm | - | - | - |
| 1778151082 | 20.56° C | 69% | 1001.1 hPa | 0 mm | - | - | - |
| 1778150182 | 21.11° C | 67% | 1001.2 hPa | 0 mm | - | - | - |
| 1778149282 | 21.11° C | 66% | 1001 hPa | 0 mm | - | - | - |
| 1778148384 | 21.11° C | 65% | 1000.9 hPa | 0 mm | - | - | - |
| 1778147484 | 21.11° C | 64% | 1000.8 hPa | 0 mm | - | - | - |
| 1778146584 | 21.67° C | 63% | 1000.7 hPa | 0 mm | - | - | - |
| 1778145684 | 22.22° C | 62% | 1000.8 hPa | 0 mm | - | - | - |
| 1778144782 | 22.22° C | 62% | 1001 hPa | 0 mm | - | - | - |
| 1778143884 | 22.22° C | 58% | 1000.9 hPa | 0 mm | - | - | - |
| 1778142984 | 22.78° C | 57% | 1000.9 hPa | 0 mm | - | - | - |
| 1778142084 | 22.78° C | 55% | 1001 hPa | 0 mm | - | - | - |
| 1778141184 | 23.33° C | 54% | 1000.9 hPa | 0 mm | - | - | - |
| 1778140283 | 23.89° C | 53% | 1001 hPa | 0 mm | - | - | - |
| 1778139384 | 24.44° C | 52% | 1000.9 hPa | 0 mm | - | - | - |
| 1778138484 | 25.56° C | 50% | 1001 hPa | 0 mm | - | - | - |
| 1778137584 | 24.44° C | 51% | 1000.9 hPa | 0 mm | - | - | - |
| 1778136684 | 25.56° C | 50% | 1001 hPa | 0 mm | - | - | - |
| 1778135784 | 25.56° C | 49% | 1001 hPa | 0 mm | - | - | - |
| 1778134883 | 25.56° C | 49% | 1001 hPa | 0 mm | - | - | - |
| 1778133983 | 25° C | 50% | 1001.3 hPa | 0 mm | - | - | - |
| 1778133082 | 24.44° C | 51% | 1001.5 hPa | 0 mm | - | - | - |
| 1778132182 | 25.56° C | 50% | 1001.7 hPa | 0 mm | - | - | - |
| 1778131965 | 25° C | 50% | 1001.6 hPa | 0 mm | - | - | - |
* Rain latest hour (hover to see other rain measurements)
** Current wind speed in m/s (hover to see current wind gust speed)